Weather History for Pittsburg, KS

Change the Weather History Date:

Saturday, September 29, 2012

  Actual Average (KJLN) Record (KJLN)
Temperature  
Mean Temperature 68 °F 65 °F  
Max Temperature 76 °F 77 °F 97 °F (1953)
Min Temperature 61 °F 54 °F 35 °F (1984)
Degree Days  
Heating Degree Days 0 3  
Month to date heating degree days 34  
Since 1 July heating degree days 35  
Cooling Degree Days 4 4  
Month to date cooling degree days 211  
Year to date cooling degree days 1638  
Growing Degree Days 18 (Base 50)    
Moisture  
Dew Point 59 °F    
Average Humidity 75    
Maximum Humidity 100    
Minimum Humidity 52    
Precipitation  
Precipitation 0.00 in 0.16 in 3.37 in (1954)
Month to date precipitation 4.80  
Year to date precipitation 35.77  
Sea Level Pressure  
Sea Level Pressure 30.06 in    
Wind  
Wind Speed 6 mph (ENE)    
Max Wind Speed 12 mph    
Max Gust Speed 16 mph    
Visibility 10 miles    
Events      
T = Trace of Precipitation, MM = Missing Value Source: NWS Daily Summary

Daily Weather History Graph

Daily Weather History Graph

Search for Another Location

Airport:

Trip Planner

Search our weather history database for the weather conditions in past years. The results will help you decide how hot, cold, wet, or windy it might be!

Date:

Astronomy

Sep. 29, 2012 Rise Set
Actual Time 7:13 AM CDT 7:04 PM CDT
Civil Twilight 6:47 AM CDT 7:30 PM CDT
Nautical Twilight 6:16 AM CDT 8:00 PM CDT
Astronomical Twilight 5:46 AM CDT 8:31 PM CDT
Moon 6:38 PM CDT (9/29) 6:44 AM CDT (9/29)
Length of Visible Light 12h 43m
Length of Day
11h 51m
Full, 100% of the Moon is Illuminated
Sep 29
Full
Sep 29
Full
Oct 8
Last Quarter
Oct 15
New
Oct 21
First Quarter

Hourly Weather History & Observations

Time (CDT) Temp. Dew Point Humidity Pressure Visibility Wind Dir Wind Speed Gust Speed Precip Events Conditions
12:15 AM 66.6 °F 66.7 °F 100% 30.11 in 7.0 mi ENE 6.9 mph - N/A   Mostly Cloudy
12:35 AM 66.6 °F 66.7 °F 100% 30.10 in 7.0 mi East 6.9 mph - N/A   Mostly Cloudy
12:55 AM 65.8 °F 66.0 °F 100% 30.10 in 7.0 mi East 6.9 mph - N/A   Mostly Cloudy
1:15 AM 65.3 °F 65.5 °F 100% 30.10 in 7.0 mi East 9.2 mph - N/A   Overcast
1:35 AM - - N/A% 30.10 in 7.0 mi ENE 6.9 mph - N/A   Overcast
1:55 AM 64.4 °F 64.6 °F 100% 30.10 in 7.0 mi NE 5.8 mph - N/A   Mostly Cloudy
2:15 AM 64.0 °F 64.4 °F 100% 30.10 in 7.0 mi ENE 4.6 mph - N/A   Mostly Cloudy
2:35 AM 64.0 °F 64.4 °F 100% 30.11 in 7.0 mi NE 5.8 mph - N/A   Mostly Cloudy
2:55 AM 63.1 °F 63.3 °F 100% 30.10 in 7.0 mi ENE 4.6 mph - N/A   Mostly Cloudy
3:15 AM 62.8 °F 63.0 °F 100% 30.10 in 10.0 mi NE 4.6 mph - N/A   Scattered Clouds
3:35 AM 61.9 °F 62.1 °F 100% 30.10 in 10.0 mi NE 4.6 mph - N/A   Clear
3:55 AM - - N/A% 30.09 in 10.0 mi NE 5.8 mph - N/A   Scattered Clouds
4:15 AM - - N/A% 30.09 in 10.0 mi NE 5.8 mph - N/A   Mostly Cloudy
4:35 AM - - N/A% 30.09 in 10.0 mi ENE 3.5 mph - N/A   Mostly Cloudy
4:55 AM - - N/A% 30.09 in 10.0 mi NE 3.5 mph - N/A   Scattered Clouds
5:15 AM - - N/A% 30.08 in 10.0 mi ENE 5.8 mph - N/A   Mostly Cloudy
5:35 AM - - N/A% 30.09 in 10.0 mi East 5.8 mph - N/A   Overcast
5:55 AM 61.3 °F 61.3 °F 100% 30.08 in 10.0 mi ENE 5.8 mph - N/A   Overcast
6:15 AM 61.3 °F 61.0 °F 99% 30.08 in 10.0 mi ENE 5.8 mph - N/A   Mostly Cloudy
6:35 AM 61.3 °F 61.5 °F 100% 30.09 in 10.0 mi ENE 6.9 mph - N/A   Overcast
6:55 AM - - N/A% 30.09 in 10.0 mi ENE 4.6 mph - N/A   Mostly Cloudy
7:15 AM - - N/A% 30.09 in 10.0 mi ENE 6.9 mph - N/A   Mostly Cloudy
7:35 AM - - N/A% 30.09 in 10.0 mi ENE 6.9 mph - N/A   Scattered Clouds
7:55 AM - - N/A% 30.09 in 10.0 mi East 6.9 mph - N/A   Scattered Clouds
8:15 AM - - N/A% 30.10 in 10.0 mi ENE 6.9 mph - N/A   Scattered Clouds
8:35 AM - - N/A% 30.10 in 10.0 mi ENE 6.9 mph - N/A   Mostly Cloudy
8:55 AM 61.9 °F 62.1 °F 100% 30.11 in 10.0 mi ENE 5.8 mph - N/A   Mostly Cloudy
9:15 AM 62.8 °F 62.8 °F 100% 30.12 in 10.0 mi ENE 5.8 mph - N/A   Mostly Cloudy
9:55 AM 65.1 °F 63.0 °F 93% 30.11 in 10.0 mi East 8.1 mph - N/A   Mostly Cloudy
10:15 AM 66.0 °F 63.0 °F 90% 30.11 in 10.0 mi East 8.1 mph - N/A   Mostly Cloudy
10:35 AM 68.7 °F 64.8 °F 87% 30.11 in 10.0 mi East 10.4 mph - N/A   Scattered Clouds
10:55 AM 70.5 °F 65.8 °F 85% 30.11 in 10.0 mi East 9.2 mph - N/A   Clear
11:15 AM 71.6 °F 66.0 °F 82% 30.10 in 10.0 mi East 9.2 mph - N/A   Scattered Clouds
11:35 AM 71.6 °F 63.9 °F 76% 30.10 in 10.0 mi East 10.4 mph - N/A   Clear
11:55 AM 71.6 °F 61.3 °F 70% 30.09 in 10.0 mi ESE 6.9 mph - N/A   Clear
12:15 PM 72.9 °F 61.3 °F 67% 30.09 in 10.0 mi ESE 8.1 mph 16.1 mph N/A   Scattered Clouds
12:55 PM 74.7 °F 60.8 °F 62% 30.07 in 10.0 mi East 9.2 mph - N/A   Scattered Clouds
1:15 PM 74.8 °F 60.1 °F 60% 30.07 in 10.0 mi ENE 11.5 mph - N/A   Clear
1:35 PM 75.4 °F 60.6 °F 60% 30.06 in 10.0 mi East 6.9 mph - N/A   Clear
1:55 PM 76.1 °F 60.4 °F 58% 30.05 in 10.0 mi ENE 6.9 mph - N/A   Clear
2:15 PM 76.6 °F 60.4 °F 57% 30.04 in 10.0 mi East 5.8 mph - N/A   Clear
2:35 PM 76.6 °F 60.6 °F 58% 30.04 in 10.0 mi East 8.1 mph - N/A   Scattered Clouds
2:55 PM 76.6 °F 59.7 °F 56% 30.04 in 10.0 mi ESE 8.1 mph - N/A   Clear
3:15 PM 76.6 °F 58.8 °F 54% 30.03 in 10.0 mi ENE 5.8 mph - N/A   Clear
3:35 PM 76.6 °F 57.9 °F 52% 30.03 in 10.0 mi NNE 10.4 mph - N/A   Clear
3:55 PM 76.1 °F 57.4 °F 52% 30.03 in 10.0 mi NE 10.4 mph - N/A   Clear
4:15 PM 75.2 °F 56.5 °F 52% 30.02 in 10.0 mi NE 8.1 mph - N/A   Clear
4:35 PM 75.4 °F 56.8 °F 52% 30.02 in 10.0 mi ENE 8.1 mph - N/A   Clear
4:55 PM 75.0 °F 56.8 °F 53% 30.02 in 10.0 mi NE 9.2 mph - N/A   Clear
5:15 PM 72.5 °F 55.0 °F 54% 30.02 in 10.0 mi NNE 9.2 mph - N/A   Clear
5:35 PM 71.6 °F 54.3 °F 54% 30.02 in 10.0 mi NE 5.8 mph - N/A   Clear
5:55 PM 71.6 °F 55.2 °F 56% 30.02 in 10.0 mi NE 9.2 mph - N/A   Clear
6:15 PM 71.6 °F 55.6 °F 57% 30.02 in 10.0 mi NNE 6.9 mph - N/A   Clear
6:35 PM 71.1 °F 56.1 °F 59% 30.01 in 10.0 mi NNE 4.6 mph - N/A   Clear
6:55 PM 68.5 °F 55.9 °F 64% 30.02 in 10.0 mi NNE 3.5 mph - N/A   Clear
7:15 PM 66.6 °F 54.7 °F 66% 30.02 in 10.0 mi NNE 3.5 mph - N/A   Clear
7:35 PM 66.0 °F 55.2 °F 68% 30.02 in 10.0 mi NNE 3.5 mph - N/A   Clear
7:55 PM 64.4 °F 54.5 °F 70% 30.01 in 10.0 mi NNE 4.6 mph - N/A   Clear
8:15 PM 64.0 °F 54.7 °F 72% 30.02 in 10.0 mi NNE 4.6 mph - N/A   Clear
8:35 PM 64.0 °F 54.3 °F 71% 30.02 in 10.0 mi NNE 3.5 mph - N/A   Clear
8:55 PM 64.0 °F 54.0 °F 70% 30.02 in 10.0 mi NE 3.5 mph - N/A   Clear
9:15 PM 63.0 °F 54.3 °F 73% 30.02 in 10.0 mi NE 3.5 mph - N/A   Clear
9:35 PM 61.7 °F 54.0 °F 76% 30.03 in 10.0 mi NE 4.6 mph - N/A   Clear
9:55 PM 61.3 °F 53.6 °F 76% 30.03 in 10.0 mi NE 3.5 mph - N/A   Clear
10:15 PM 61.3 °F 53.1 °F 74% 30.03 in 10.0 mi NE 3.5 mph - N/A   Clear
10:35 PM 61.3 °F 52.7 °F 73% 30.03 in 10.0 mi NE 3.5 mph - N/A   Clear
10:55 PM 61.3 °F 52.5 °F 73% 30.03 in 10.0 mi NE 4.6 mph - N/A   Clear
11:15 PM 61.3 °F 52.9 °F 74% 30.02 in 10.0 mi NE 3.5 mph - N/A   Clear
11:35 PM 61.3 °F 52.9 °F 74% 30.02 in 10.0 mi NE 3.5 mph - N/A   Clear
11:55 PM 61.3 °F 52.3 °F 72% 30.02 in 10.0 mi Calm Calm - N/A   Clear